Hutchinson, MN

9:27 PM CDT on August 29, 2016 (GMT -0500)
Hutchinson Municipal-Butler

Weather History for KHCD - December, 2013

Change the Weather History Date:

Wednesday, December 18, 2013

  Actual Average Record
Temperature  
Mean Temperature 20 °F -  
Max Temperature 35 °F 26 °F 49 °F (2011)
Min Temperature 4 °F 9 °F -28 °F (1983)
Degree Days  
Heating Degree Days 46    
Moisture  
Dew Point 19 °F    
Average Humidity 83    
Maximum Humidity 95    
Minimum Humidity 71    
Precipitation  
Precipitation 0.06 in - - ()
Sea Level Pressure  
Sea Level Pressure 29.75 in    
Wind  
Wind Speed 5 mph (South)    
Max Wind Speed 13 mph    
Max Gust Speed -    
Visibility 10 miles    
Events      
Averages and records for this station are not official NWS values.
T = Trace of Precipitation, MM = Missing Value Source: NWS Daily Summary

Daily Weather History Graph

Daily Weather History Graph

Search for Another Location

Airport or City:

Trip Planner

Search our weather history database for the weather conditions in past years. The results will help you decide how hot, cold, wet, or windy it might be!

Date:

Astronomy

Dec. 18, 2013 Rise Set
Actual Time 7:50 AM CST 4:38 PM CST
Civil Twilight 7:16 AM CST 5:11 PM CST
Nautical Twilight 6:39 AM CST 5:48 PM CST
Astronomical Twilight 6:04 AM CST 6:24 PM CST
Moon 6:14 PM CST (12/18) 8:27 AM CST (12/18)
Length of Visible Light 9h 54m
Length of Day
8h 47m
Full, 98% of the Moon is Illuminated
Dec 18
Full
Dec 25
Last Quarter
Jan 1
New
Jan 7
First Quarter
Jan 15
Full

Hourly Weather History & Observations

Time (CST) Temp. Windchill Dew Point Humidity Pressure Visibility Wind Dir Wind Speed Gust Speed Precip Events Conditions
12:14 AM 5.2 °F - 2.7 °F 89% 30.03 in 10.0 mi Calm Calm - N/A   Scattered Clouds
12:33 AM 5.4 °F - 2.8 °F 89% 30.02 in 10.0 mi Calm Calm - N/A   Clear
12:54 AM 4.6 °F -2.5 °F 1.8 °F 88% 30.01 in 10.0 mi ESE 3.5 mph - N/A   Scattered Clouds
1:13 AM 6.4 °F - 3.9 °F 89% 30.00 in 10.0 mi Calm Calm - N/A   Mostly Cloudy
1:34 AM 7.7 °F 1.0 °F 5.5 °F 91% 29.99 in 10.0 mi East 3.5 mph - N/A   Overcast
1:53 AM 8.6 °F 2.0 °F 6.3 °F 90% 29.98 in 10.0 mi ESE 3.5 mph - N/A   Mostly Cloudy
2:12 AM 8.6 °F 0.1 °F 6.3 °F 90% 29.97 in 10.0 mi ESE 4.6 mph - N/A   Scattered Clouds
2:33 AM 8.6 °F 0.1 °F 6.3 °F 90% 29.97 in 10.0 mi ESE 4.6 mph - N/A   Clear
2:53 AM 9.1 °F 0.8 °F 6.8 °F 90% 29.96 in 10.0 mi ESE 4.6 mph - N/A   Clear
3:13 AM 10.0 °F 1.8 °F 7.9 °F 91% 29.94 in 10.0 mi ESE 4.6 mph - N/A   Clear
3:33 AM 11.3 °F 1.9 °F 9.3 °F 92% 29.92 in 10.0 mi ESE 5.8 mph - N/A   Clear
3:53 AM 12.7 °F 1.4 °F 10.6 °F 91% 29.90 in 10.0 mi ESE 8.1 mph - N/A   Clear
4:13 AM 13.6 °F 3.5 °F 11.7 °F 92% 29.88 in 10.0 mi ESE 6.9 mph - N/A   Clear
4:33 AM 14.5 °F 2.7 °F 12.6 °F 92% 29.86 in 10.0 mi ESE 9.2 mph - N/A   Clear
4:53 AM 15.3 °F 2.8 °F 13.1 °F 91% 29.85 in 10.0 mi ESE 10.4 mph - N/A   Clear
5:13 AM 15.8 °F 3.4 °F 14.0 °F 93% 29.83 in 10.0 mi ESE 10.4 mph - N/A   Clear
5:33 AM 15.8 °F 4.2 °F 13.8 °F 92% 29.81 in 10.0 mi SE 9.2 mph - N/A   Clear
5:53 AM 15.8 °F 5.1 °F 13.6 °F 91% 29.80 in 10.0 mi SE 8.1 mph - N/A   Clear
6:13 AM 17.2 °F 5.2 °F 13.8 °F 86% 29.79 in 10.0 mi ESE 10.4 mph - N/A   Clear
6:33 AM 18.1 °F 7.1 °F 13.5 °F 82% 29.76 in 10.0 mi SE 9.2 mph - N/A   Clear
6:53 AM 19.0 °F 7.5 °F 13.5 °F 79% 29.75 in 10.0 mi SE 10.4 mph - N/A   Clear
7:14 AM 19.2 °F 8.4 °F 13.1 °F 77% 29.74 in 10.0 mi SE 9.2 mph - N/A   Clear
7:33 AM 19.4 °F 10.4 °F 12.9 °F 76% 29.73 in 10.0 mi SSE 6.9 mph - N/A   Clear
7:53 AM 21.0 °F 11.4 °F 13.1 °F 71% 29.71 in 10.0 mi SE 8.1 mph - N/A   Scattered Clouds
8:13 AM 21.9 °F 12.5 °F 13.8 °F 71% 29.70 in 10.0 mi SE 8.1 mph - N/A   Scattered Clouds
8:33 AM 22.5 °F 14.1 °F 14.7 °F 72% 29.70 in 10.0 mi SSE 6.9 mph - N/A   Clear
8:53 AM 23.4 °F 15.2 °F 15.6 °F 72% 29.68 in 10.0 mi SE 6.9 mph - N/A   Clear
9:13 AM 24.3 °F 17.3 °F 16.3 °F 72% 29.67 in 10.0 mi SSE 5.8 mph - N/A   Clear
9:33 AM 24.3 °F 17.3 °F 16.9 °F 73% 29.69 in 10.0 mi SSE 5.8 mph - N/A   Clear
9:53 AM 25.2 °F 17.3 °F 18.1 °F 75% 29.69 in 10.0 mi South 6.9 mph - N/A   Clear
10:13 AM 26.1 °F 16.8 °F 19.2 °F 75% 29.69 in 10.0 mi South 9.2 mph - N/A   Clear
10:33 AM 27.1 °F 19.7 °F 20.1 °F 75% 29.69 in 10.0 mi South 6.9 mph - N/A   Clear
10:53 AM 28.0 °F 20.0 °F 21.0 °F 75% 29.68 in 10.0 mi South 8.1 mph - N/A   Clear
11:13 AM 28.2 °F 19.5 °F 21.6 °F 76% 29.67 in 10.0 mi South 9.2 mph - N/A   Clear
11:33 AM 28.2 °F 20.2 °F 22.1 °F 78% 29.66 in 10.0 mi South 8.1 mph - N/A   Clear
11:53 AM 28.9 °F 21.9 °F 22.8 °F 78% 29.65 in 10.0 mi South 6.9 mph - N/A   Clear
12:13 PM 30.2 °F 24.3 °F 23.7 °F 77% 29.65 in 10.0 mi SSW 5.8 mph - N/A   Clear
12:33 PM 31.6 °F 25.1 °F 24.8 °F 76% 29.64 in 10.0 mi South 6.9 mph - N/A   Clear
12:53 PM 32.5 °F 26.2 °F 25.7 °F 76% 29.64 in 10.0 mi SW 6.9 mph - N/A   Clear
1:13 PM 33.8 °F 27.7 °F 26.2 °F 74% 29.64 in 10.0 mi SW 6.9 mph - N/A   Clear
1:33 PM 34.2 °F 30.0 °F 26.6 °F 74% 29.64 in 10.0 mi WSW 4.6 mph - N/A   Clear
1:53 PM 34.3 °F 28.4 °F 27.1 °F 75% 29.63 in 10.0 mi WSW 6.9 mph - N/A   Clear
2:14 PM 34.7 °F 29.6 °F 27.3 °F 74% 29.63 in 10.0 mi WSW 5.8 mph - 0.01 in   Clear
2:33 PM 35.1 °F 30.1 °F 28.0 °F 76% 29.64 in 10.0 mi WSW 5.8 mph - 0.03 in   Clear
2:53 PM 35.1 °F 30.1 °F 28.4 °F 77% 29.65 in 10.0 mi WSW 5.8 mph - 0.05 in   Clear
3:13 PM 35.2 °F 32.4 °F 28.4 °F 76% 29.65 in 10.0 mi WSW 3.5 mph - N/A   Clear
3:33 PM 34.2 °F 30.0 °F 28.4 °F 79% 29.65 in 10.0 mi SW 4.6 mph - N/A   Clear
3:53 PM 33.8 °F - 28.2 °F 80% 29.65 in 10.0 mi Calm Calm - 0.01 in   Clear
4:13 PM 32.0 °F 28.7 °F 27.5 °F 83% 29.66 in 10.0 mi SW 3.5 mph - N/A   Clear
4:33 PM 31.8 °F 28.5 °F 27.3 °F 83% 29.66 in 10.0 mi SSW 3.5 mph - N/A   Clear
4:53 PM 30.4 °F 26.9 °F 26.2 °F 85% 29.66 in 10.0 mi South 3.5 mph - N/A   Clear
5:13 PM 28.4 °F 23.3 °F 25.9 °F 90% 29.67 in 10.0 mi SSW 4.6 mph - N/A   Clear
5:33 PM 29.1 °F - 26.1 °F 88% 29.67 in 10.0 mi Calm Calm - N/A   Clear
5:54 PM 27.5 °F 23.6 °F 24.8 °F 90% 29.67 in 10.0 mi South 3.5 mph - N/A   Clear
6:13 PM 27.5 °F 23.6 °F 25.0 °F 90% 29.67 in 10.0 mi SSW 3.5 mph - N/A   Clear
6:32 PM 26.1 °F - 23.7 °F 91% 29.68 in 10.0 mi Calm Calm - N/A   Clear
6:53 PM 24.8 °F - 23.2 °F 94% 29.68 in 10.0 mi Calm Calm - N/A   Clear
7:14 PM 24.8 °F - 23.5 °F 95% 29.69 in 10.0 mi Calm Calm - N/A   Clear
7:33 PM 24.6 °F - 23.2 °F 94% 29.69 in 10.0 mi Calm Calm - N/A   Clear
7:53 PM 24.8 °F 19.1 °F 22.6 °F 91% 29.70 in 10.0 mi West 4.6 mph - N/A   Clear
8:14 PM 26.2 °F 18.6 °F 22.8 °F 87% 29.71 in 10.0 mi WSW 6.9 mph - N/A   Clear
8:33 PM 28.0 °F 24.2 °F 24.3 °F 86% 29.71 in 10.0 mi West 3.5 mph - N/A   Clear
8:54 PM 30.6 °F 21.8 °F 25.0 °F 80% 29.72 in 10.0 mi West 10.4 mph - N/A   Clear
9:13 PM 31.1 °F 23.1 °F 25.7 °F 80% 29.73 in 10.0 mi West 9.2 mph - N/A   Clear
9:33 PM 31.3 °F 23.3 °F 25.9 °F 80% 29.74 in 10.0 mi West 9.2 mph - N/A   Clear
9:53 PM 31.5 °F 23.5 °F 25.7 °F 79% 29.75 in 10.0 mi WNW 9.2 mph - N/A   Clear
10:13 PM 30.6 °F 21.2 °F 25.0 °F 80% 29.75 in 10.0 mi WNW 11.5 mph - N/A   Clear
10:34 PM 28.8 °F 20.2 °F 24.1 °F 83% 29.77 in 10.0 mi WNW 9.2 mph - N/A   Clear
10:53 PM 27.3 °F 18.4 °F 23.4 °F 85% 29.78 in 10.0 mi NW 9.2 mph - N/A   Clear
11:13 PM 27.1 °F 17.5 °F 22.8 °F 84% 29.79 in 10.0 mi NW 10.4 mph - N/A   Clear
11:33 PM 27.1 °F 16.9 °F 21.9 °F 81% 29.80 in 10.0 mi NW 11.5 mph - N/A   Clear
11:53 PM 26.2 °F 15.2 °F 21.2 °F 81% 29.81 in 10.0 mi NW 12.7 mph - N/A   Clear